When you browse on this site, cookies collect data to enhance your experience and personalize the content and advertising you see.
Visit our Privacy Policy to learn more. By continuing to use the site, you agree to this use of cookies and data.
  • In Netherlands
  • List of Countries
  • For 7 days
  • Water Temperature
  • Weather Map
  • Weather Widgets
  • user-avatar
    Login

    Hourly Weather Smolan

    Today, 20 November, Wednesday

    Time Temperature Precipitation Wind Pressure Humidity
    00:00 +8°C° 0 mm 1 mps 658 mmHg 93%
    01:00 +7°C° 0 mm 1 mps 657 mmHg 92%
    02:00 +7°C° 0 mm 1 mps 657 mmHg 91%
    03:00 +7°C° 0 mm 1 mps 657 mmHg 90%
    04:00 +7°C° 0 mm 1 mps 656 mmHg 90%
    05:00 +7°C° 0 mm 1 mps 656 mmHg 89%
    06:00 +7°C° 0 mm 1 mps 656 mmHg 89%
    07:00 +7°C° 0 mm 1 mps 656 mmHg 89%
    08:00 +7°C° 0 mm 1 mps 656 mmHg 89%
    09:00 +9°C° 0 mm 1 mps 656 mmHg 81%
    10:00 +9°C° 0 mm 2 mps 657 mmHg 74%
    11:00 +11°C° 0 mm 3 mps 657 mmHg 66%
    12:00 +11°C° 0 mm 3 mps 657 mmHg 64%
    13:00 +11°C° 0 mm 3 mps 656 mmHg 63%
    14:00 +11°C° 0 mm 3 mps 656 mmHg 61%
    15:00 +10°C° 0 mm 3 mps 656 mmHg 69%
    16:00 +9°C° 0 mm 2 mps 655 mmHg 78%
    17:00 +8°C° 0 mm 2 mps 655 mmHg 87%
    18:00 +8°C° 0.3 mm 2 mps 655 mmHg 89%
    19:00 +8°C° 0.3 mm 2 mps 655 mmHg 92%
    20:00 +8°C° 0.3 mm 2 mps 655 mmHg 94%
    21:00 +9°C° 0.6 mm 1 mps 655 mmHg 95%
    22:00 +9°C° 0.6 mm 1 mps 655 mmHg 95%
    23:00 +9°C° 0.6 mm 1 mps 655 mmHg 96%

    Tomorrow, 21 November, Thursday

    Time Temperature Precipitation Wind Pressure Humidity
    00:00 +9°C° 0.5 mm 1 mps 655 mmHg 96%
    01:00 +9°C° 0.5 mm 1 mps 655 mmHg 97%
    02:00 +9°C° 0.5 mm 1 mps 655 mmHg 97%
    03:00 +9°C° 0.1 mm 1 mps 655 mmHg 97%
    04:00 +9°C° 0.1 mm 1 mps 655 mmHg 96%
    05:00 +9°C° 0.1 mm 1 mps 655 mmHg 96%
    06:00 +9°C° 0.6 mm 1 mps 655 mmHg 96%
    07:00 +8°C° 0.6 mm 0 mps 655 mmHg 96%
    08:00 +8°C° 0.6 mm 0 mps 655 mmHg 95%
    09:00 +9°C° 0.7 mm 1 mps 655 mmHg 94%
    10:00 +9°C° 0.7 mm 1 mps 655 mmHg 93%
    11:00 +10°C° 0.7 mm 1 mps 655 mmHg 91%
    12:00 +10°C° 0.3 mm 1 mps 655 mmHg 91%
    13:00 +10°C° 0.3 mm 1 mps 655 mmHg 91%
    14:00 +10°C° 0.3 mm 1 mps 654 mmHg 90%
    15:00 +9°C° 0.3 mm 1 mps 654 mmHg 92%
    16:00 +9°C° 0.3 mm 1 mps 654 mmHg 94%
    17:00 +8°C° 0.3 mm 1 mps 654 mmHg 96%
    18:00 +8°C° 0.2 mm 1 mps 654 mmHg 96%
    19:00 +8°C° 0.2 mm 1 mps 654 mmHg 96%
    20:00 +8°C° 0.2 mm 1 mps 654 mmHg 96%
    21:00 +8°C° 0.2 mm 1 mps 654 mmHg 96%
    22:00 +8°C° 0.2 mm 1 mps 654 mmHg 96%
    23:00 +8°C° 0.2 mm 1 mps 654 mmHg 95%

    Day after tomorrow, 22 November, Friday

    Time Temperature Precipitation Wind Pressure Humidity
    00:00 +8°C° 0.1 mm 1 mps 654 mmHg 95%
    01:00 +8°C° 0.1 mm 1 mps 654 mmHg 95%
    02:00 +8°C° 0.1 mm 1 mps 654 mmHg 95%
    03:00 +6°C° 0.1 mm 2 mps 654 mmHg 95%
    04:00 +6°C° 0.1 mm 2 mps 654 mmHg 95%
    05:00 +6°C° 0.1 mm 2 mps 654 mmHg 95%
    06:00 +6°C° 0 mm 2 mps 654 mmHg 94%
    07:00 +5°C° 0 mm 2 mps 654 mmHg 94%
    08:00 +5°C° 0 mm 2 mps 654 mmHg 93%
    09:00 +5°C° 0 mm 2 mps 655 mmHg 91%
    10:00 +5°C° 0 mm 2 mps 655 mmHg 88%
    11:00 +6°C° 0 mm 2 mps 655 mmHg 86%
    12:00 +6°C° 0.1 mm 2 mps 655 mmHg 85%
    13:00 +6°C° 0.1 mm 2 mps 655 mmHg 85%
    14:00 +6°C° 0.1 mm 2 mps 655 mmHg 84%
    15:00 +5°C° 0.2 mm 2 mps 655 mmHg 87%
    16:00 +5°C° 0.2 mm 2 mps 655 mmHg 89%
    17:00 +4°C° 0.2 mm 2 mps 655 mmHg 92%
    18:00 +4°C° 0.9 mm 2 mps 655 mmHg 93%
    19:00 +4°C° 0.9 mm 2 mps 655 mmHg 94%
    20:00 +4°C° 0.9 mm 2 mps 655 mmHg 94%
    21:00 +5°C° 0.8 mm 1 mps 655 mmHg 95%
    22:00 +5°C° 0.8 mm 1 mps 655 mmHg 95%
    23:00 +5°C° 0.8 mm 1 mps 656 mmHg 95%

    23 November, Saturday

    Time Temperature Precipitation Wind Pressure Humidity
    00:00 +5°C° 0.8 mm 1 mps 656 mmHg 95%
    01:00 +5°C° 0.8 mm 1 mps 656 mmHg 95%
    02:00 +5°C° 0.8 mm 1 mps 656 mmHg 95%
    03:00 +5°C° 1.1 mm 1 mps 656 mmHg 95%
    04:00 +4°C° 1.1 mm 1 mps 656 mmHg 95%
    05:00 +4°C° 1.1 mm 1 mps 655 mmHg 95%
    06:00 +4°C° 0.7 mm 1 mps 656 mmHg 94%
    07:00 +4°C° 0.7 mm 1 mps 656 mmHg 94%
    08:00 +4°C° 0.7 mm 1 mps 656 mmHg 94%
    09:00 +5°C° 0.1 mm 1 mps 656 mmHg 92%
    10:00 +5°C° 0.1 mm 1 mps 656 mmHg 90%
    11:00 +6°C° 0.1 mm 1 mps 656 mmHg 88%
    12:00 +6°C° 0 mm 1 mps 656 mmHg 88%
    13:00 +6°C° 0 mm 1 mps 656 mmHg 89%
    14:00 +6°C° 0 mm 1 mps 656 mmHg 89%
    15:00 +6°C° 0 mm 1 mps 656 mmHg 91%
    16:00 +6°C° 0 mm 1 mps 655 mmHg 93%
    17:00 +5°C° 0 mm 1 mps 655 mmHg 95%
    18:00 +5°C° 0 mm 1 mps 655 mmHg 94%
    19:00 +5°C° 0 mm 1 mps 656 mmHg 94%
    20:00 +5°C° 0 mm 1 mps 656 mmHg 93%
    21:00 +5°C° 0 mm 1 mps 656 mmHg 93%
    22:00 +5°C° 0 mm 1 mps 656 mmHg 93%
    23:00 +5°C° 0 mm 1 mps 656 mmHg 94%

    24 November, Sunday

    Time Temperature Precipitation Wind Pressure Humidity
    00:00 +4°C° 0 mm 0 mps 656 mmHg 94%
    01:00 +4°C° 0 mm 0 mps 656 mmHg 94%
    02:00 +4°C° 0 mm 0 mps 656 mmHg 94%
    03:00 +4°C° 0 mm 0 mps 655 mmHg 94%
    04:00 +3°C° 0 mm 0 mps 655 mmHg 94%
    05:00 +3°C° 0 mm 0 mps 655 mmHg 93%
    06:00 +4°C° 0 mm 1 mps 655 mmHg 93%
    07:00 +4°C° 0 mm 1 mps 655 mmHg 93%
    08:00 +4°C° 0 mm 1 mps 655 mmHg 93%
    09:00 +6°C° 0 mm 1 mps 656 mmHg 87%
    10:00 +7°C° 0 mm 1 mps 656 mmHg 82%
    11:00 +9°C° 0 mm 1 mps 657 mmHg 76%
    12:00 +8°C° 0 mm 1 mps 656 mmHg 77%
    13:00 +8°C° 0 mm 1 mps 656 mmHg 78%
    14:00 +8°C° 0 mm 1 mps 656 mmHg 79%
    15:00 +8°C° 0 mm 1 mps 655 mmHg 83%
    16:00 +7°C° 0 mm 1 mps 655 mmHg 87%
    17:00 +6°C° 0 mm 1 mps 655 mmHg 90%
    18:00 +6°C° 0 mm 1 mps 655 mmHg 91%
    19:00 +5°C° 0 mm 1 mps 655 mmHg 92%
    20:00 +5°C° 0 mm 1 mps 654 mmHg 93%
    21:00 +5°C° 0 mm 1 mps 654 mmHg 94%
    22:00 +5°C° 0 mm 1 mps 654 mmHg 94%
    23:00 +5°C° 0 mm 1 mps 654 mmHg 94%

    25 November, Monday

    Time Temperature Precipitation Wind Pressure Humidity
    00:00 +5°C° 0 mm 1 mps 654 mmHg 94%
    01:00 +5°C° 0 mm 1 mps 654 mmHg 95%
    02:00 +5°C° 0 mm 1 mps 654 mmHg 95%
    03:00 +4°C° 0 mm 1 mps 653 mmHg 94%
    04:00 +4°C° 0 mm 1 mps 653 mmHg 94%
    05:00 +4°C° 0 mm 1 mps 653 mmHg 94%
    06:00 +5°C° 0 mm 1 mps 653 mmHg 93%
    07:00 +5°C° 0 mm 1 mps 653 mmHg 93%
    08:00 +5°C° 0 mm 1 mps 653 mmHg 93%
    09:00 +5°C° 0.1 mm 1 mps 653 mmHg 92%
    10:00 +5°C° 0.1 mm 1 mps 653 mmHg 92%
    11:00 +6°C° 0.1 mm 1 mps 653 mmHg 91%
    12:00 +6°C° 0.5 mm 1 mps 653 mmHg 92%
    13:00 +5°C° 0.5 mm 2 mps 652 mmHg 93%
    14:00 +4°C° 0.5 mm 2 mps 652 mmHg 94%
    15:00 +4°C° 0.6 mm 2 mps 651 mmHg 94%
    16:00 +4°C° 0.6 mm 2 mps 651 mmHg 94%
    17:00 +4°C° 0.6 mm 2 mps 651 mmHg 94%
    18:00 +4°C° 0.7 mm 2 mps 651 mmHg 94%
    19:00 +4°C° 0.7 mm 2 mps 651 mmHg 94%
    20:00 +4°C° 0.7 mm 2 mps 651 mmHg 94%
    21:00 +4°C° 0.3 mm 2 mps 651 mmHg 94%
    22:00 +4°C° 0.3 mm 2 mps 651 mmHg 94%
    23:00 +3°C° 0.3 mm 2 mps 651 mmHg 93%
    Show more